This demonstration page uses our WeatherBlox Daily Observations layout. Learn more.

Left ArrowRight Arrow

41.86663, -103.66717

Hourly Observations for October 11, 2018

Temp ( °F °C ) Dew Point ( °F °C ) Humidity (%) Winds ( mph kmh ) Pressure ( in mb ) Visibility ( mi km ) Precip ( " mm )
12:53 am 00:53 Cloudy 30 -1.1 30 -1.1 100 100 E 3 6 30.18 1022 10 16 0.00 0.00
1:34 am 01:34 Cloudy 32 0 32 0 100 100 E 6 9 30.24 1024 10 16 0.00 0.00
1:53 am 01:53 Cloudy 32 0 32 0 100 100 E 6 9 30.18 1022 10 16 0.00 0.00
2:53 am 02:53 Cloudy 32 0 32 0 100 100 E 5 7 30.17 1022 10 16 0.00 0.00
3:11 am 03:11 Cloudy 32 0 32 0 100 100 ESE 5 7 30.24 1024 10 16 0.00 0.00
3:53 am 03:53 Cloudy 31 -0.6 31 -0.6 100 100 ESE 6 9 30.16 1021 10 16 0.00 0.00
4:49 am 04:49 Mostly Cloudy 30 -1 30 -1 100 100 E 6 9 30.24 1024 8 13 0.00 0.00
4:53 am 04:53 Mostly Cloudy with Mist and Fog 30 -1.1 30 -1.1 100 100 E 6 9 30.16 1021 6 10 0.00 0.00
5:09 am 05:09 Cloudy with Mist and Fog 29 -1.7 29 -1.7 100 100 ESE 6 9 30.27 1025 2 3 0.00 0.00
5:16 am 05:16 Cloudy with Mist and Fog 28 -2 28 -2 100 100 ESE 6 9 30.27 1025 2 3 0.00 0.00
5:37 am 05:37 Cloudy with Freezing Fog 29 -1.7 29 -1.7 100 100 ESE 7 11 30.24 1024 1 1 0.00 0.00
5:53 am 05:53 Mostly Cloudy with Freezing Fog 29 -1.7 29 -1.7 100 100 E 6 9 30.16 1021 1 1 0.00 0.00
6:11 am 06:11 Mostly Cloudy with Freezing Fog 28 -2.2 28 -2.2 100 100 E 6 9 30.24 1024 0 0 0.00 0.00
6:19 am 06:19 Mostly Cloudy with Freezing Fog 28 -2.2 28 -2.2 100 100 ESE 6 9 30.24 1024 1 1 0.00 0.00
6:53 am 06:53 Cloudy with Mist and Fog 27 -2.8 27 -2.8 100 100 Calm 30.18 1022 1 1 0.00 0.00
7:02 am 07:02 Cloudy with Mist and Fog 27 -2.8 27 -2.8 100 100 E 5 7 30.27 1025 1 2 0.00 0.00
7:09 am 07:09 Cloudy with Mist and Fog 27 -2.8 27 -2.8 100 100 E 5 7 30.27 1025 3 5 0.00 0.00
7:25 am 07:25 Cloudy 28 -2.2 28 -2.2 100 100 ESE 3 6 30.27 1025 9 14 0.00 0.00
7:53 am 07:53 Cloudy 29 -1.7 29 -1.7 100 100 E 6 9 30.17 1022 7 11 0.00 0.00
8:23 am 08:23 Cloudy 30 -1.1 30 -1.1 100 100 ESE 8 13 30.27 1025 9 14 0.00 0.00
8:30 am 08:30 Cloudy 31 -0.6 31 -0.6 100 100 ESE 8 13 30.27 1025 9 14 0.00 0.00
8:53 am 08:53 Cloudy 31 -0.6 31 -0.6 100 100 E 7 11 30.17 1022 9 14 0.00 0.00
9:08 am 09:08 Cloudy 32 0 32 0 100 100 ESE 7 11 30.21 1023 10 16 0.00 0.00
9:53 am 09:53 Mostly Cloudy 35 1.7 35 1.7 100 100 ESE 10 17 30.16 1021 10 16 0.00 0.00
10:53 am 10:53 Mostly Sunny 42 5.6 35 1.7 76 76 SE 10 17 30.12 1020 10 16 0.00 0.00
11:25 am 11:25 Mostly Cloudy 43 6 36 2 76 76 SE 7 11 30.09 1019 10 16 0.00 0.00
11:53 am 11:53 Cloudy 45 7.2 37 2.8 74 74 ESE 8 13 30.09 1019 10 16 0.00 0.00
12:14 pm 12:14 Cloudy 46 8 36 2 66 66 SSE 14 22 30.03 1017 10 16 0.00 0.00
12:29 pm 12:29 Cloudy 48 8.9 35 1.7 61 61 SSE 13 20 30.00 1016 10 16 0.00 0.00
12:53 pm 12:53 Cloudy 47 8.3 34 1.1 61 61 S 17 28 30.06 1018 10 16 0.00 0.00
1:53 pm 13:53 Cloudy 48 8.9 35 1.7 61 61 SSE 14 22 30.02 1017 10 16 0.00 0.00
2:53 pm 14:53 Mostly Cloudy 47 8.3 37 2.8 69 69 SE 13 20 30.00 1016 10 16 0.00 0.00
3:53 pm 15:53 Cloudy 46 7.8 36 2.2 68 68 S 12 19 29.99 1016 10 16 0.00 0.00
4:01 pm 16:01 Cloudy 46 7.8 36 2.2 68 68 SSE 12 19 29.94 1014 10 16 0.00 0.00
4:30 pm 16:30 Cloudy 46 8 36 2 66 66 S 10 17 29.94 1014 10 16 0.00 0.00
4:53 pm 16:53 Cloudy 46 7.8 37 2.8 71 71 S 13 20 29.99 1016 10 16 0.00 0.00
5:02 pm 17:02 Cloudy 46 8 37 3 71 71 S 14 22 29.94 1014 10 16 0.00 0.00
5:53 pm 17:53 Mostly Cloudy 43 6.1 37 2.8 80 80 SE 10 17 30.00 1016 10 16 0.00 0.00
6:53 pm 18:53 Clear 41 5 37 2.8 86 86 ESE 9 15 30.02 1017 10 16 0.00 0.00
7:53 pm 19:53 Clear 41 5 38 3.3 89 89 E 9 15 30.01 1016 10 16 0.00 0.00
8:53 pm 20:53 Partly Cloudy 39 3.9 37 2.8 93 93 E 10 17 30.01 1016 10 16 0.00 0.00
9:53 pm 21:53 Cloudy 40 4.4 37 2.8 89 89 ESE 10 17 29.99 1016 10 16 0.00 0.00
10:53 pm 22:53 Cloudy 39 3.9 38 3.3 96 96 E 7 11 29.97 1015 10 16 0.00 0.03
11:15 pm 23:15 Cloudy with Rain 39 3.9 39 3.9 100 100 NE 8 13 30.00 1016 4 6 0.03 0.76
11:29 pm 23:29 Cloudy 39 3.9 39 3.9 100 100 E 8 13 29.97 1015 10 16 0.03 0.76
11:53 pm 23:53 Cloudy 39 3.9 39 3.9 100 100 ESE 8 13 29.95 1014 10 16 0.03 0.76

Powered by AerisWeather